RH
85 77 70 66 59 48 39 35 34 36 40 45 50 51 50 54 61 68 70 71 73 78 82 84 88 95 102 106 108 107 104 104 105 102 100 105 102 78 49 36 36 33 28 25 24 24 26 26 25 23 21 18 17 16 15 15 15 15 15 14 14 14 13 13 13 13 13 13 13 13 13 14 14 14 14 14 14 15 15 15 15 15 15 15 15
90 83 72 64 59 53 48 44 44 47 50 52 53 52 52 56 65 71 71 71 75 83 88 90 94 101 106 109 108 106 105 105 104 103 106 101 77 47 34 34 31 25 23 23 23 24 24 22 20 17 16 15 15 15 15 15 14 14 14 14 14 13 13 13 13 13 13 13 13 13 13 14 14 14 14 14 14 15 15 15 15 15 15 15 15
91 80 67 61 61 59 53 48 48 49 50 50 50 51 55 61 68 70 69 72 80 89 91 92 99 105 108 109 108 107 105 103 105 110 101 74 44 31 31 29 23 21 21 22 23 22 19 17 15 14 14 14 14 14 14 14 14 14 14 14 13 13 13 13 13 13 13 13 13 13 14 14 14 14 14 15 15 15 15 15 14 14 14 15 15
80 67 60 60 59 52 45 42 43 46 46 47 49 54 60 65 68 67 67 74 82 87 87 92 100 106 107 107 107 107 105 106 110 100 69 40 29 29 26 21 19 20 21 21 19 17 15 14 14 14 14 14 14 14 13 13 13 13 13 13 12 13 13 12 12 13 12 13 13 13 14 14 14 14 14 14 14 14 14 15 14 14 14 14 15
65 58 56 54 46 39 38 41 45 46 48 50 54 59 64 65 65 64 67 74 80 83 87 95 103 108 110 110 108 108 108 106 93 64 36 27 27 24 19 18 19 19 18 17 14 13 14 13 13 14 13 13 13 13 13 12 12 12 12 12 12 12 12 12 12 12 12 12 12 13 13 13 14 13 13 13 13 13 13 14 14 14 14 15 14
58 55 52 45 38 39 43 46 48 50 53 56 60 63 65 65 65 66 70 75 79 83 92 102 107 109 111 111 108 106 102 85 57 33 25 26 23 18 18 18 18 17 15 13 12 13 13 13 13 13 12 12 12 12 12 12 12 12 12 12 12 12 12 12 12 12 12 12 12 12 13 13 13 13 13 13 13 13 13 13 14 14 14 15 14
60 55 49 41 39 44 47 48 50 52 56 59 62 65 66 66 67 68 71 74 78 85 97 107 109 110 110 107 101 94 78 54 33 25 24 21 17 17 18 16 15 14 12 12 13 13 13 13 13 12 12 12 12 12 12 12 12 12 12 12 12 12 12 12 12 12 12 12 12 13 14 14 14 14 14 14 14 14 14 14 15 15 15 15 15
70 64 53 44 43 46 47 47 50 53 57 60 63 66 66 64 64 64 66 70 76 88 101 108 109 107 101 93 85 71 52 34 26 23 20 17 17 17 15 14 13 12 12 13 13 12 12 12 11 11 12 11 11 12 12 12 12 12 12 12 12 12 13 12 13 13 13 13 13 14 14 14 14 14 13 14 14 14 15 15 16 17 17 16 16
78 67 53 45 45 46 46 48 52 55 57 58 61 63 62 61 59 59 62 69 78 92 103 105 102 94 84 76 66 50 34 26 22 19 16 16 16 14 12 12 12 12 13 12 12 12 11 11 11 11 11 11 12 12 12 12 12 12 13 13 13 13 13 12 13 13 12 13 13 13 13 13 13 12 12 12 13 13 14 14 15 16 16 16 16
67 56 49 47 47 47 48 51 54 54 52 52 55 57 59 59 59 60 64 71 81 93 98 93 85 76 69 62 50 35 26 22 18 15 15 15 13 12 12 12 12 12 12 11 11 11 11 11 11 11 11 12 12 12 12 12 12 12 12 12 12 12 11 11 11 11 10 11 11 10 10 10 10 10 10 10 11 11 12 12 12 13 13 14 14
53 50 51 49 46 46 49 52 51 47 45 47 51 55 59 61 62 62 66 72 81 87 85 77 70 64 58 48 35 26 21 17 15 14 14 12 11 11 12 12 12 11 11 11 11 11 11 11 11 11 11 12 11 11 11 10 10 10 9 9 9 9 9 9 8 8 9 8 8 8 8 9 9 8 8 8 9 9 9 9 9 10 10 11 11
50 50 48 44 45 48 50 48 44 40 42 46 51 55 59 63 63 62 65 71 76 77 72 67 62 55 46 36 26 20 16 15 14 13 11 11 11 11 11 10 10 10 10 11 11 11 12 11 11 11 10 9 9 9 8 8 8 8 7 7 7 7 7 7 7 8 8 8 8 8 8 8 8 8 7 7 7 8 8 8 8 8 8 8 9
47 44 42 44 49 50 47 41 37 40 45 49 53 55 58 62 64 64 66 69 70 68 65 60 54 44 35 25 19 16 14 14 12 10 10 11 11 10 10 10 10 10 11 11 11 11 10 10 9 8 7 7 7 7 7 7 7 7 7 7 7 7 7 7 7 8 8 8 8 8 8 8 7 7 7 7 7 7 7 7 7 7 7 7 7
40 41 45 50 52 47 40 37 40 46 50 52 53 54 58 65 68 68 68 66 64 63 59 52 43 33 24 18 15 14 13 12 11 10 11 11 10 10 10 10 10 11 11 10 10 9 8 8 7 6 6 6 6 7 7 7 7 7 7 7 7 7 7 7 7 7 7 7 7 7 7 7 7 7 7 6 6 6 7 7 7 7 7 7 7
42 48 52 53 49 41 36 40 48 53 54 53 51 54 64 72 73 70 66 62 60 58 52 42 32 23 17 15 14 13 11 10 11 11 10 9 10 10 10 10 11 10 9 8 8 7 7 6 6 6 7 7 7 7 7 7 7 7 6 7 6 6 6 7 7 6 6 7 6 7 6 6 6 6 6 6 6 6 7 6 7 7 7 7 7
53 56 53 48 41 37 40 49 55 56 53 51 52 62 75 78 74 69 63 59 56 50 41 31 21 16 14 14 12 10 10 11 10 10 10 10 10 10 10 10 9 8 7 7 6 6 6 7 7 7 7 7 7 7 7 6 7 6 6 6 6 6 7 6 6 6 6 6 6 6 6 6 7 6 6 6 6 6 7 6 6 7 6 7 7
59 53 45 40 37 41 50 56 58 56 55 56 63 72 78 76 70 64 58 54 49 40 29 20 15 14 13 11 11 10 10 10 10 10 10 10 11 10 9 8 7 6 6 6 6 7 6 7 7 6 6 6 6 6 6 6 6 6 7 6 6 7 7 6 7 7 6 6 6 6 6 6 7 7 7 7 6 6 7 7 6 7 6 6 7
48 41 39 41 46 54 60 60 60 60 61 66 73 76 74 69 63 58 52 47 38 27 19 15 14 13 11 10 11 10 10 10 10 11 11 11 10 9 7 7 6 6 6 6 6 7 6 6 6 6 6 6 6 6 6 6 6 6 6 7 6 7 6 6 7 6 6 6 6 6 7 6 6 7 7 7 7 7 7 7 7 7 7 7 7
37 41 49 55 59 62 62 62 62 62 65 71 74 72 68 62 56 52 46 36 25 17 15 14 12 11 10 10 11 10 10 10 11 11 11 9 8 7 6 6 6 6 6 6 6 6 5 6 6 6 6 6 6 6 6 6 7 6 6 6 6 6 6 6 6 6 6 6 6 6 6 6 6 7 7 7 7 7 7 7 7 7 7 7 7
47 59 65 65 63 63 64 64 62 63 68 72 70 65 60 55 50 44 34 23 16 14 14 12 10 10 10 10 10 10 11 11 11 10 9 7 7 6 6 7 6 7 6 6 5 5 5 5 6 6 6 6 6 6 6 6 6 6 6 6 6 6 6 6 6 6 6 6 6 6 6 6 6 6 6 7 6 6 7 7 7 7 7 7 7
65 69 67 65 65 66 65 62 62 66 68 68 64 59 55 51 43 32 21 15 14 14 12 10 10 10 10 10 10 11 11 11 9 8 7 6 6 6 7 7 7 6 6 5 5 6 5 6 6 6 6 6 6 6 6 6 6 7 6 6 6 7 6 6 6 6 6 7 7 7 6 6 6 6 6 7 6 6 7 7 7 7 7 7 7
69 67 66 68 68 65 61 62 66 67 65 62 59 55 51 43 30 19 14 14 13 11 10 10 10 10 10 10 11 11 10 9 7 6 6 6 6 7 7 7 6 6 6 6 6 6 6 6 6 6 6 6 6 6 6 6 6 7 7 7 7 7 7 7 7 7 7 7 7 7 7 7 7 7 7 7 7 7 7 7 7 7 7 7 7
67 70 72 71 65 61 63 67 68 65 61 59 56 50 41 28 18 14 14 13 11 10 10 10 10 10 10 11 11 10 8 7 6 6 6 6 7 7 7 7 7 6 6 6 6 6 6 6 6 6 6 6 6 6 6 7 7 7 7 7 7 7 7 7 7 7 7 7 7 7 7 7 7 7 7 7 7 7 7 7 7 7 7 7 7
75 79 76 68 62 64 68 68 64 61 59 57 50 39 27 17 14 14 13 10 10 10 10 10 10 10 11 10 9 7 6 6 6 6 6 7 7 7 7 7 7 6 6 7 6 6 6 6 6 7 7 7 7 7 7 8 7 7 7 7 7 7 7 7 7 7 7 7 8 7 8 8 8 8 8 8 8 7 8 8 8 7 7 7 7
84 81 72 65 67 70 66 60 58 58 56 50 38 25 17 15 14 13 10 10 11 10 10 10 11 11 10 8 7 6 6 6 6 6 7 7 7 7 7 7 7 7 7 7 6 6 7 7 7 7 8 8 8 8 8 8 8 8 8 8 8 8 8 8 8 8 8 8 8 8 8 8 8 8 8 8 8 8 8 8 8 8 8 8 8
84 73 67 70 72 67 59 55 56 54 47 36 24 16 15 15 13 11 10 10 10 10 10 11 11 10 8 6 6 6 6 6 6 6 6 7 7 7 7 7 7 7 7 7 7 7 7 8 8 8 8 8 8 9 9 9 9 9 9 9 9 9 9 9 9 9 9 9 9 10 10 9 9 9 9 9 9 9 9 9 9 8 8 9 9
75 70 73 74 68 60 56 56 54 46 34 22 16 15 15 13 10 10 11 10 10 10 11 11 9 8 6 6 6 6 6 6 6 6 6 7 7 7 7 7 7 7 7 7 7 8 8 8 9 9 9 9 10 10 10 10 10 10 9 10 10 10 10 11 10 11 11 11 11 11 11 11 11 11 11 11 10 10 10 10 10 10 10 10 10
71 75 76 68 60 57 56 53 44 31 21 15 15 15 13 10 11 11 10 10 11 11 11 9 8 6 6 6 6 6 6 6 6 6 6 6 7 7 7 7 7 7 7 7 7 8 8 9 9 9 10 10 10 10 10 10 10 11 10 10 11 11 11 11 11 11 11 11 12 12 11 12 12 11 11 11 11 11 11 11 11 11 11 12 12
75 76 69 61 58 56 51 42 29 19 15 15 15 13 10 11 12 11 10 11 11 11 9 7 6 6 6 6 6 6 6 6 6 7 7 7 7 8 7 8 8 7 7 8 7 8 9 9 10 10 10 10 10 10 11 11 11 11 11 11 11 11 11 11 11 11 11 12 12 12 12 12 12 11 11 11 11 11 11 11 12 12 11 12 12
77 71 63 59 57 51 41 28 19 15 16 14 12 10 10 11 11 11 12 12 11 9 8 6 6 6 6 6 7 6 7 7 7 7 8 8 8 8 8 8 8 8 8 8 8 9 9 9 10 10 10 10 11 11 11 11 11 11 11 11 11 11 10 11 11 11 11 12 12 12 12 12 11 11 11 11 11 11 11 11 11 11 11 11 12
72 65 60 56 50 40 28 19 15 16 15 12 10 10 11 11 11 12 12 11 9 7 6 6 6 6 6 6 7 7 7 7 7 8 8 8 9 9 9 9 9 9 9 9 9 9 10 10 11 11 11 11 11 11 11 11 11 11 11 11 11 10 11 11 11 11 12 12 12 12 12 12 12 11 11 11 11 11 11 12 11 11 12 12 12
67 63 57 49 39 27 18 16 16 15 12 10 10 11 10 10 12 12 11 9 7 6 6 6 6 6 6 7 7 7 7 8 8 8 8 9 9 9 9 9 9 9 9 9 10 11 11 11 12 12 12 12 11 11 11 11 11 11 11 11 11 11 11 11 11 12 12 12 12 12 12 12 12 12 12 12 13 12 12 12 12 12 13 14 14
64 57 48 38 27 19 16 17 15 12 10 11 11 11 11 11 12 11 9 7 6 6 6 6 6 6 7 7 7 7 8 8 8 9 9 9 9 10 10 10 10 10 10 10 11 11 12 12 12 12 12 12 12 12 12 11 11 11 11 11 11 11 11 12 12 12 12 12 12 12 12 13 13 13 13 13 13 14 14 13 14 14 14 15 15
57 48 39 27 18 16 17 16 12 10 11 11 11 11 12 12 11 9 7 6 6 6 6 6 7 7 7 7 7 8 8 8 9 9 9 9 10 10 11 11 11 11 11 11 11 11 12 13 13 13 13 13 12 12 12 12 12 12 12 12 12 12 12 12 12 13 13 13 13 13 13 13 14 14 14 14 14 14 15 14 15 16 16 16 17
48 38 27 18 16 18 16 12 11 11 11 11 11 12 12 11 10 8 6 6 6 6 6 7 7 7 7 8 7 8 8 9 9 10 10 11 11 12 12 12 11 11 11 11 11 12 12 13 14 14 14 14 13 13 13 13 13 13 12 12 12 12 13 13 13 13 13 13 14 14 13 14 14 14 15 15 15 15 15 15 16 16 16 17 17
39 28 19 17 18 17 13 11 12 12 11 12 13 12 12 11 9 7 6 6 7 7 7 7 7 7 8 8 8 8 9 9 10 11 11 11 11 12 12 12 12 12 11 11 11 12 13 14 15 15 15 15 14 14 14 14 14 13 13 13 13 13 14 14 14 14 15 14 15 15 14 15 15 15 15 15 15 15 15 16 16 16 16 17 17
30 20 17 19 18 14 12 12 12 12 12 13 13 12 12 10 7 7 7 7 7 7 7 7 8 8 8 8 8 9 9 9 10 11 11 11 12 12 12 13 13 13 12 12 12 13 14 15 16 16 17 16 16 15 15 14 14 14 14 14 15 14 15 15 15 16 16 16 16 16 16 16 16 16 16 16 16 16 16 16 16 16 16 16 16
21 18 20 19 15 12 12 13 12 13 14 13 13 12 11 9 7 7 7 7 7 8 8 8 8 8 8 9 9 9 10 10 11 12 12 13 13 13 13 13 13 13 13 13 13 14 15 16 17 17 18 17 17 16 16 16 15 16 16 16 16 17 17 17 18 17 18 18 18 18 18 18 18 18 18 18 19 19 19 19 19 20 20 20 20
19 20 20 16 12 13 13 13 13 14 14 14 14 12 10 8 8 7 7 8 8 8 8 9 9 9 9 10 10 10 11 12 13 13 13 13 14 14 14 14 14 14 14 13 14 15 16 17 18 19 18 19 18 18 18 18 17 18 18 18 18 18 18 19 19 19 19 19 19 19 19 19 20 20 21 22 23 23 24 24 25 25 25 25 26
20 21 18 14 13 14 13 13 14 14 14 15 14 12 10 9 8 8 8 8 8 8 9 9 9 9 10 11 11 12 13 13 14 14 14 14 15 15 15 15 15 14 14 14 15 16 17 18 19 20 19 20 20 19 19 19 19 19 19 19 19 19 19 19 19 19 19 19 19 20 20 21 21 22 23 24 25 25 26 26 27 27 28 28 29
22 20 15 13 14 14 14 14 15 15 15 16 15 12 11 9 8 8 9 8 9 9 9 10 10 10 11 11 12 13 13 14 15 15 15 16 17 16 16 16 16 15 15 15 15 17 18 19 20 20 20 20 20 20 20 20 19 19 19 19 19 19 19 20 20 20 21 22 22 23 23 24 24 25 26 26 27 27 28 29 30 31 32 33 33
23 17 13 14 15 15 14 15 16 15 16 17 16 13 12 10 9 9 9 9 10 10 10 11 12 12 12 13 13 14 14 15 16 16 17 17 18 18 18 18 17 16 16 16 17 17 18 18 18 19 19 19 19 19 19 19 20 20 20 21 21 23 24 25 26 27 27 28 29 30 30 30 31 31 31 32 33 33 34 36 37 39 40 42 43
21 14 14 16 15 14 15 16 16 17 18 19 17 15 13 12 11 10 10 10 11 11 12 12 13 13 13 14 14 14 15 16 17 18 18 19 20 21 21 20 20 19 18 18 18 19 19 20 20 20 20 20 21 21 22 22 23 25 26 28 29 30 32 32 33 34 34 34 35 35 36 36 37 38 39 40 42 43 45 46 48 49 51 52 52
17 14 17 17 14 15 17 17 17 19 21 20 19 17 15 14 13 12 12 12 12 13 13 14 14 14 15 15 16 16 17 18 18 19 20 21 22 22 23 23 23 22 21 21 21 21 21 22 23 23 24 25 26 27 29 30 32 34 36 37 38 39 40 41 42 42 42 43 44 44 45 45 46 47 47 48 49 51 52 53 54 55 56 57 59
16 16 18 16 15 17 18 18 19 22 23 23 22 20 19 18 17 15 15 15 15 16 16 16 17 18 18 19 19 20 19 20 20 20 21 22 23 24 25 26 27 27 27 27 27 27 27 28 29 30 31 32 33 35 37 39 41 44 46 48 50 51 52 54 55 55 56 57 58 59 58 58 58 59 60 61 62 63 64 66 67 69 72 75 78
16 18 18 16 16 18 19 19 21 23 24 25 26 24 23 22 21 19 19 19 19 20 21 21 23 24 25 25 26 26 25 26 25 25 25 25 25 25 26 27 29 30 32 32 32 33 33 33 34 35 37 38 40 42 43 45 47 49 51 53 56 59 63 66 67 67 70 73 76 77 78 80 81 83 85 85 85 86 88 89 90 93 95 96 99
18 19 19 16 17 20 21 21 22 25 27 29 29 28 28 27 25 24 24 24 23 24 26 27 28 30 32 33 35 35 36 36 37 37 38 39 38 38 38 38 38 40 41 42 43 44 45 46 46 46 47 47 48 49 51 53 55 57 60 63 68 74 78 80 81 83 87 91 94 97 100 102 103 105 106 106 106 108 109 108 108 107 106 104 105
19 20 19 17 19 21 22 23 25 28 30 31 32 33 33 33 32 32 32 32 33 35 36 36 38 40 42 44 45 46 47 48 49 51 54 55 56 58 59 60 61 62 62 64 65 67 69 71 73 75 76 77 78 79 80 82 83 85 88 92 96 100 100 98 98 100 104 106 107 110 113 113 111 109 109 109 109 110 110 108 106 105 102 101 102
20 22 19 18 21 23 24 25 27 30 33 35 37 38 38 39 39 40 40 42 44 47 49 51 52 54 56 58 60 61 63 64 65 67 68 68 69 71 72 73 75 76 78 80 81 82 84 86 88 90 92 94 95 97 99 100 101 103 105 107 110 110 107 105 105 107 109 111 112 114 116 116 116 115 114 114 113 114 114 113 111 109 109 108 110
23 23 19 19 22 25 26 27 29 32 35 37 38 39 41 43 43 43 44 46 49 51 55 58 60 63 65 67 69 71 72 74 74 75 77 77 78 79 80 80 81 82 83 85 86 88 90 91 93 95 97 98 100 102 103 104 105 106 107 108 108 106 105 105 106 107 109 111 112 113 113 114 114 114 114 114 114 115 116 116 115 115 116 117 118
24 23 20 20 23 26 27 29 30 33 36 38 40 41 43 44 45 46 48 48 49 52 55 57 60 64 67 69 71 72 73 74 74 75 76 77 78 80 82 84 85 86 88 89 90 92 93 94 95 96 97 98 99 100 101 101 103 104 105 105 105 104 105 106 107 108 109 110 110 109 109 109 108 108 108 109 109 110 111 112 113 115 117 118 118
Wind_Speed
100 102 103 104 104 104 103 104 106 108 110 113 116 119 121 123 126 129 131 133 134 135 136 137 139 139 141 142 143 144 144 145 147 149 152 155 159 162 165 166 167 166 165 163 160 157 154 151 147 143 139 135 132 129 127 125 123 122 120 119 118 116 114 111 107 104 103 103 101 100 100 99 98 97 96 95 94 94 94 93 93 93 93 92 92
102 103 104 105 106 105 106 107 109 111 114 116 119 122 124 126 129 131 133 135 137 138 139 140 141 142 144 145 146 146 147 148 151 153 157 160 163 166 167 168 168 167 164 161 158 154 150 146 141 137 134 130 128 127 125 124 122 120 119 118 116 115 113 110 107 104 102 102 101 100 100 98 97 96 96 95 94 94 93 93 93 92 92 92 91
103 104 105 106 106 107 109 111 112 115 117 119 122 125 127 129 131 133 135 137 139 140 141 142 144 145 146 147 148 149 151 153 155 159 162 164 167 168 170 170 168 165 162 158 154 149 144 140 136 133 130 129 127 125 123 121 120 118 117 115 114 112 111 109 106 103 101 101 101 100 99 98 97 95 95 94 94 93 93 93 92 91 91 90 90
104 105 106 107 108 109 112 113 115 117 119 122 124 127 129 131 133 134 137 139 141 142 143 145 146 147 149 150 151 153 155 157 160 163 165 167 169 171 171 170 166 162 158 153 148 142 138 135 132 130 128 126 124 122 121 119 117 116 114 113 111 110 109 107 104 102 100 98 98 98 97 96 95 94 93 92 92 91 91 91 91 91 90 89 89
105 106 107 108 110 112 114 116 118 120 122 124 127 129 131 133 134 136 138 141 143 144 145 147 149 150 152 153 155 157 159 162 164 166 168 171 173 173 171 167 163 158 152 146 141 137 134 132 130 128 126 124 121 120 118 117 115 114 112 111 109 108 106 104 102 100 98 96 96 95 95 94 93 92 91 90 89 89 89 89 89 88 88 88 88
106 107 108 109 112 114 116 118 120 122 124 126 129 131 133 134 136 138 141 143 144 146 147 149 151 153 154 156 158 161 164 166 167 169 172 174 175 173 169 163 158 151 145 140 137 134 132 130 127 125 123 121 119 118 116 115 113 112 110 109 107 105 103 102 100 98 97 95 94 93 93 92 91 90 89 88 87 87 87 86 86 86 86 86 87
108 108 109 112 114 116 118 120 122 124 127 129 131 133 134 136 138 141 143 144 146 147 149 151 153 155 157 159 162 165 167 169 171 173 175 176 174 170 164 157 150 144 140 137 134 132 130 127 125 123 120 118 117 115 113 112 110 109 108 106 105 103 102 100 99 97 96 95 94 93 93 92 91 90 88 87 86 86 85 84 85 86 86 85 86
109 110 112 115 117 119 120 122 125 127 129 132 134 135 136 138 141 143 145 147 148 149 151 153 156 158 161 163 166 169 171 173 175 177 176 174 170 164 156 149 143 139 136 134 132 129 126 124 122 119 117 115 113 112 110 109 108 107 106 105 104 102 101 100 99 97 96 95 94 94 94 93 92 90 88 87 86 85 84 84 84 86 86 86 86
111 112 115 117 119 121 123 125 128 130 133 135 136 137 138 141 143 146 148 149 151 152 154 157 159 162 164 167 169 172 175 177 179 177 174 169 163 155 148 142 138 136 133 131 128 126 123 121 118 116 114 112 111 109 109 108 107 106 105 104 104 103 101 100 99 97 96 95 94 94 93 93 92 90 88 86 85 84 84 84 83 85 86 86 86
113 115 118 120 121 123 125 128 131 133 135 137 138 139 141 144 147 149 150 152 154 156 158 161 163 165 167 170 173 176 179 180 179 174 168 161 154 146 141 137 134 131 129 126 124 122 119 117 115 113 112 111 110 109 108 107 106 105 104 103 102 101 100 99 97 95 94 93 92 92 91 90 90 88 86 85 83 83 83 82 82 82 83 84 84
116 118 120 122 123 125 127 130 134 136 138 139 140 142 144 147 150 151 153 155 157 160 162 165 166 168 171 174 177 180 181 179 175 167 159 152 145 140 136 133 129 126 124 122 119 118 117 115 113 112 111 109 108 107 106 105 104 102 101 99 98 97 95 94 93 91 90 89 88 88 87 87 87 85 83 82 81 80 80 79 78 79 79 80 80
118 120 122 123 125 127 130 134 137 139 141 142 144 146 148 150 152 153 155 158 161 163 166 168 169 172 175 178 180 181 179 174 167 158 150 144 139 135 131 128 124 122 120 118 116 115 115 114 112 110 109 107 106 104 103 101 100 98 96 95 93 92 90 88 87 86 86 85 85 84 83 83 83 82 80 79 78 77 76 75 75 75 75 76 75
120 121 123 125 127 130 133 137 140 142 143 145 147 149 151 152 153 155 158 161 164 167 169 171 173 176 179 180 181 178 173 165 157 149 143 138 134 130 127 123 120 118 117 116 115 114 113 111 109 107 105 103 101 100 99 97 95 94 92 91 90 88 86 84 83 82 81 81 80 80 80 79 79 78 77 75 75 73 72 71 71 71 71 71 71
122 123 125 127 129 133 138 141 143 144 146 148 150 152 153 154 156 158 161 165 167 169 171 174 177 179 181 181 177 171 163 155 148 143 138 133 129 126 123 120 118 116 115 114 113 111 110 107 105 103 101 99 97 95 94 93 91 90 89 88 87 84 82 81 80 78 77 76 76 76 76 75 75 74 73 72 71 69 68 67 67 67 67 67 67
125 126 128 129 133 137 141 144 145 147 149 151 153 154 155 156 159 162 165 168 170 172 175 177 180 181 180 176 169 161 153 146 141 137 133 129 126 123 120 118 117 115 113 111 109 107 105 102 100 99 97 95 93 91 90 89 87 86 85 84 83 80 78 77 76 75 73 72 71 71 71 71 70 70 69 68 66 65 64 64 63 63 63 63 63
127 129 130 133 137 141 144 146 148 150 152 154 156 156 157 159 163 166 169 171 173 175 177 180 181 179 175 168 159 151 145 140 135 131 128 125 123 121 119 117 115 112 109 107 104 101 99 97 96 94 92 90 89 87 85 84 82 81 80 80 78 76 73 72 71 70 69 68 67 66 66 66 65 65 64 64 62 60 60 60 59 59 59 59 59
129 131 134 138 141 144 146 148 150 153 155 156 157 158 160 163 166 169 171 173 175 178 179 180 179 174 166 158 150 144 139 134 131 127 125 123 121 119 117 114 111 107 104 101 99 96 94 92 91 89 87 86 84 82 80 78 77 76 75 74 73 71 69 67 66 65 65 64 62 61 60 60 60 59 59 59 58 56 56 56 56 55 55 55 55
132 134 138 141 144 146 148 150 153 155 156 158 158 160 163 166 169 171 173 175 177 179 179 177 172 164 156 149 143 138 133 130 127 125 123 121 119 116 113 109 106 103 100 97 94 92 89 87 85 84 82 81 79 77 75 74 72 71 70 69 67 65 64 62 61 61 60 59 58 56 55 55 55 54 53 53 53 52 52 52 52 52 51 51 51
135 138 141 144 146 148 151 153 155 156 157 159 160 163 166 169 171 173 175 177 178 178 175 170 162 153 147 142 137 132 129 126 124 122 120 118 114 111 107 104 101 98 95 93 90 87 84 82 80 78 77 76 75 73 71 69 67 66 65 63 62 60 59 58 57 56 55 54 53 52 51 50 50 49 48 48 48 48 48 48 48 47 47 47 47
138 142 145 147 149 151 153 155 156 157 159 160 163 166 168 171 173 175 177 178 177 174 167 159 151 145 140 136 131 128 125 123 121 119 116 112 108 105 101 99 96 93 91 88 85 83 80 77 75 73 72 70 69 67 65 63 62 61 60 58 57 55 54 53 52 51 50 49 48 48 47 46 45 44 44 44 44 43 43 43 43 43 42 42 42
142 145 148 150 151 153 155 156 157 158 160 162 165 168 170 173 175 177 177 176 172 166 157 150 143 138 134 130 127 125 123 121 118 114 110 106 102 99 96 93 91 88 86 83 81 78 76 74 72 69 67 65 64 62 60 58 58 57 55 54 52 51 50 49 48 47 46 45 44 43 43 42 41 40 40 39 39 39 39 39 38 38 37 37 37
144 147 150 151 153 154 155 157 158 160 162 164 167 170 173 175 177 177 175 171 164 156 149 142 137 132 128 126 123 121 119 116 112 108 104 100 97 93 91 88 85 83 81 79 76 74 72 70 67 65 62 61 59 57 55 54 53 52 51 50 48 47 46 45 44 43 42 41 40 39 38 37 37 36 36 35 35 35 35 34 34 33 33 32 32
146 149 151 152 153 154 155 157 159 161 164 167 170 172 175 176 176 174 169 162 154 147 142 136 131 127 124 122 120 118 114 109 105 101 98 94 91 88 85 83 81 79 77 74 72 70 67 65 63 60 58 57 55 53 51 50 49 48 47 46 44 43 42 41 40 39 39 38 36 35 34 33 33 32 32 32 31 31 30 30 29 28 28 28 28
148 150 152 153 153 154 156 157 160 163 166 169 171 174 176 176 173 168 160 152 146 140 135 131 127 124 122 120 117 112 108 103 99 96 92 89 86 83 81 79 76 74 72 70 68 66 64 62 59 57 54 53 52 49 48 47 45 44 43 41 40 39 38 37 36 36 35 34 33 31 30 30 29 29 28 27 27 26 26 25 24 24 24 24 23
149 150 151 152 153 155 156 158 161 164 167 170 173 174 175 172 167 159 151 144 139 134 130 126 123 121 119 115 111 106 102 98 94 91 87 84 81 78 76 74 72 70 68 66 64 62 60 58 56 53 51 50 48 46 44 43 41 40 38 37 36 35 34 33 33 32 31 29 28 27 27 26 25 25 24 23 22 22 21 21 20 20 19 19 19
148 150 151 152 153 155 158 160 163 166 168 171 173 173 171 164 157 149 143 138 132 128 125 122 120 117 114 109 104 100 96 93 89 86 82 79 76 74 72 70 68 66 65 63 60 58 56 54 52 50 48 47 45 43 41 40 38 36 35 33 32 31 30 29 29 27 26 25 24 23 22 22 21 20 19 19 18 17 17 16 16 16 15 15 15
148 149 150 151 153 156 159 162 165 167 170 171 171 168 162 154 147 141 137 131 126 123 121 119 116 113 108 103 98 94 91 88 85 82 78 75 72 70 68 65 64 62 60 58 56 53 51 49 47 45 44 43 41 40 38 36 34 33 31 30 29 28 27 26 24 23 22 21 20 19 18 18 17 16 15 15 14 14 13 12 12 12 11 11 11
147 148 149 152 155 158 161 164 166 168 169 169 165 159 151 145 139 134 130 126 123 120 118 115 111 106 102 98 94 89 86 83 80 77 75 72 70 67 64 62 60 58 56 53 51 49 46 44 42 41 40 38 37 36 35 33 31 29 28 26 25 24 23 22 21 20 18 17 16 16 15 14 13 12 12 11 10 9 9 9 9 9 9 9 9
145 147 150 153 156 159 162 165 167 168 167 163 156 148 141 137 132 128 124 121 119 116 113 109 104 99 96 92 89 85 82 79 77 74 72 70 68 65 63 60 57 55 53 50 48 45 43 40 39 37 36 35 34 33 31 30 28 26 25 24 22 21 20 19 18 17 16 14 14 13 12 11 10 9 8 7 6 6 5 6 6 7 7 8 9
145 148 152 155 158 161 164 166 167 166 162 154 146 138 133 128 125 122 120 117 114 111 106 102 97 93 90 86 83 81 78 76 74 71 69 66 64 62 60 58 55 53 50 47 45 42 39 37 36 34 33 32 31 29 28 27 25 24 22 21 20 19 18 17 16 14 13 12 11 10 9 8 7 6 5 4 3 2 3 4 5 5 6 7 8
146 150 153 156 159 162 165 165 164 160 153 145 137 131 125 121 118 116 114 111 108 104 99 95 91 88 85 81 78 76 74 72 70 67 65 63 60 58 56 54 51 49 47 44 42 40 38 36 34 32 30 29 27 26 25 24 23 22 20 19 18 17 16 15 14 13 11 10 9 8 7 6 5 4 3 2 1 1 1 2 3 5 6 7 9
148 151 154 157 161 163 163 162 158 151 143 136 131 125 120 115 113 110 108 105 101 97 93 90 87 83 80 78 75 72 70 68 65 63 61 59 57 55 53 51 49 46 44 42 40 38 35 33 31 29 27 26 25 24 23 22 21 20 19 18 17 15 14 13 12 11 10 9 8 7 6 5 5 4 4 4 4 4 4 4 5 6 7 8 9
148 151 155 159 161 161 160 156 149 141 134 129 124 119 116 112 108 104 101 98 95 92 89 86 82 79 76 74 71 69 66 64 61 59 57 55 54 52 51 49 46 44 41 38 36 34 32 30 28 27 25 24 23 22 21 20 19 18 17 16 15 14 14 13 12 11 9 9 8 7 7 6 6 6 6 6 6 7 7 7 8 9 9 10 10
149 153 156 159 159 158 154 147 139 132 127 122 118 114 111 108 104 100 96 92 90 87 84 81 77 75 72 70 67 65 62 60 58 56 54 53 52 50 48 46 43 40 37 34 32 31 29 27 26 25 24 23 22 21 20 19 18 17 16 15 15 14 13 13 12 11 10 9 9 8 8 8 8 8 8 8 9 9 10 10 11 12 12 13 12
150 154 156 157 155 152 146 137 131 126 121 117 113 110 106 102 99 95 92 89 86 83 80 76 73 71 68 66 63 61 59 57 55 54 53 51 49 47 45 43 40 37 35 32 31 29 28 27 25 23 22 21 20 20 19 19 18 17 16 16 15 15 14 14 13 12 12 11 10 10 10 10 10 10 10 10 11 11 12 12 13 14 15 15 15
152 155 155 154 151 144 136 129 125 120 116 112 108 104 101 97 94 91 88 85 82 79 76 73 70 68 66 63 60 58 56 54 52 50 49 47 46 44 42 40 37 35 32 30 29 28 27 26 24 23 22 21 20 20 20 19 18 18 17 17 17 16 16 16 15 15 14 14 13 13 13 13 13 13 13 13 13 13 14 14 15 15 16 16 15
153 153 152 149 143 135 128 124 120 115 110 107 103 99 96 93 90 86 84 81 77 74 72 69 67 65 62 60 58 55 53 52 50 48 47 46 44 43 41 38 36 33 31 29 28 27 26 25 24 23 22 21 21 21 21 20 20 20 19 19 19 19 19 19 18 18 17 17 17 17 17 18 18 18 17 17 17 17 16 16 16 16 16 16 15
151 150 148 142 134 127 123 119 114 109 105 101 97 94 92 89 86 83 80 77 74 71 68 65 63 61 59 58 56 54 52 51 50 48 46 45 43 41 39 37 35 32 30 28 27 26 25 25 24 24 23 23 23 23 23 22 22 22 22 22 22 22 21 21 21 20 20 20 20 21 21 21 22 22 22 21 21 21 20 20 20 19 19 18 19
148 146 141 133 126 122 118 113 108 104 99 95 92 90 88 85 82 79 76 73 70 67 65 63 61 59 58 56 55 53 51 50 48 46 44 43 41 40 38 36 34 32 30 29 27 27 27 27 26 26 26 26 26 25 25 25 25 25 25 24 24 23 23 23 23 23 22 22 22 23 23 23 24 24 24 24 24 24 23 23 23 23 23 23 23
144 140 133 125 121 118 113 108 103 98 94 91 89 87 84 81 78 75 72 69 67 64 62 60 58 57 56 54 53 51 49 48 46 44 43 42 41 39 37 35 34 32 30 29 28 28 28 28 29 29 29 29 28 28 27 27 27 27 26 26 25 25 25 25 25 25 25 24 24 24 24 25 25 25 25 25 25 25 25 25 25 25 26 25 25
139 133 125 120 118 114 108 102 98 93 89 88 86 84 81 78 75 72 69 67 64 62 60 58 57 56 54 53 51 50 48 46 45 44 43 42 41 40 38 36 35 33 32 31 30 30 30 30 30 30 31 30 30 30 29 29 29 29 28 28 28 28 28 28 28 28 28 28 27 27 27 27 27 27 27 27 27 27 27 28 28 28 27 27 26
133 125 120 117 114 108 102 97 93 89 87 85 84 81 78 75 72 70 68 65 63 61 59 57 56 55 53 52 50 49 47 46 45 44 43 42 42 41 39 38 37 35 34 34 33 32 32 32 32 32 32 32 32 32 32 32 32 32 32 32 33 33 33 33 33 32 32 32 32 32 32 31 31 31 30 30 30 30 30 30 30 29 29 28 28
126 120 116 114 109 103 98 93 88 86 85 84 81 79 76 74 71 69 66 64 62 60 58 56 55 53 52 51 50 49 48 47 46 45 44 44 43 42 41 40 39 39 38 37 37 36 36 36 36 36 36 36 36 36 37 37 37 37 37 38 38 38 38 38 37 37 37 37 37 36 36 35 35 34 34 33 33 33 33 32 32 31 31 31 30
120 116 114 111 105 99 94 89 85 84 83 82 79 77 75 73 70 68 65 62 60 58 57 55 54 53 52 51 51 50 49 48 47 46 45 45 44 44 43 43 42 42 42 41 41 41 41 41 41 41 41 41 41 41 41 42 42 42 42 42 42 42 42 41 41 41 41 41 40 40 39 38 38 37 36 36 36 35 35 35 34 34 34 33 33
116 113 111 107 101 95 90 85 83 82 81 80 78 76 73 71 69 66 64 61 59 58 56 55 54 54 53 53 52 51 50 50 49 48 47 47 46 46 46 46 46 46 45 45 44 44 44 44 44 44 44 44 44 44 44 44 44 44 44 44 44 44 44 44 44 43 43 43 43 42 41 41 40 40 39 39 38 38 38 37 37 37 37 36 36
113 111 108 103 97 91 86 82 81 80 79 78 76 74 71 69 67 64 62 60 58 56 56 55 54 54 54 53 53 53 52 52 52 52 51 51 50 50 49 50 50 50 50 49 49 48 47 47 46 46 45 45 45 45 45 45 45 45 45 45 45 45 45 45 45 45 45 45 45 44 44 43 43 43 42 41 41 40 40 40 39 39 38 38 37
110 108 105 99 93 88 83 80 79 79 78 76 75 72 70 68 66 63 61 59 58 56 55 55 54 54 53 53 53 53 53 53 53 53 54 54 54 54 54 53 53 53 53 53 53 53 52 52 51 50 49 48 48 47 47 46 46 46 46 46 46 46 46 45 45 45 45 45 45 45 45 44 44 43 43 42 41 41 40 40 39 38 37 36 35
107 106 102 95 90 85 81 78 78 78 76 75 73 71 69 67 65 63 61 59 58 57 56 55 54 54 53 53 53 53 53 53 54 54 54 55 55 56 56 56 56 56 55 55 55 55 55 54 53 53 52 51 50 50 49 48 48 48 47 47 47 46 45 44 44 44 44 44 44 43 43 42 42 41 41 40 39 38 38 37 36 35 34 33 31
105 103 98 92 87 82 78 76 76 75 74 72 70 67 65 63 62 60 58 57 56 55 54 54 53 53 53 53 53 53 53 54 54 54 54 55 55 55 56 56 56 55 55 55 55 54 54 53 52 52 51 50 50 49 48 48 47 46 46 45 44 43 42 42 42 42 41 41 40 40 39 39 38 37 37 36 35 35 34 33 32 31 30 29 28
103 100 95 89 84 79 75 73 73 72 71 68 66 64 62 60 58 57 55 54 53 52 51 51 51 51 51 51 51 51 51 52 52 52 53 53 54 54 54 54 54 54 54 53 53 53 52 52 51 50 50 49 48 48 47 46 46 45 45 44 42 41 41 41 40 40 40 39 38 37 37 36 35 34 33 33 32 31 31 30 29 28 28 27 26
101 98 93 86 81 77 73 71 69 69 68 66 64 62 60 58 56 55 54 52 51 50 49 49 49 49 49 49 49 49 49 49 49 50 50 50 51 51 51 51 52 52 52 51 51 51 50 50 49 49 48 48 47 46 46 45 45 44 44 43 42 41 41 41 40 39 38 38 37 36 35 34 34 33 33 32 31 31 30 29 29 28 28 27 26
Wind_Direction
320 321 321 321 321 321 321 321 321 322 322 322 321 321 320 320 319 319 320 320 320 321 321 321 321 321 320 319 319 319 318 318 317 316 315 315 315 314 313 312 312 311 310 310 309 308 307 306 305 304 303 302 302 301 300 299 299 298 297 297 296 295 295 294 294 293 291 290 289 288 287 286 285 285 284 283 282 280 279 278 277 276 275 274 273
320 320 321 321 321 320 321 321 322 322 322 322 321 321 320 319 319 319 319 320 320 320 320 320 320 320 319 319 318 318 317 317 316 315 315 314 314 313 312 312 311 310 310 309 308 307 306 305 304 303 303 302 301 300 300 299 298 297 297 296 295 295 294 293 293 292 291 290 289 288 287 286 285 284 283 282 281 280 279 278 276 275 275 274 273
320 320 320 320 320 320 321 322 322 322 322 322 321 320 319 318 318 318 319 319 320 320 320 320 319 319 318 318 318 317 317 316 315 315 314 314 313 312 312 311 310 310 309 308 307 306 305 304 303 303 302 301 300 300 299 298 297 297 296 295 294 294 293 293 292 291 290 290 289 288 286 286 285 284 283 282 281 280 279 278 276 275 274 273 273
320 320 320 320 321 321 322 322 322 322 321 321 320 319 318 318 318 318 318 319 319 319 319 318 318 318 318 318 317 316 316 315 314 314 314 314 313 312 311 311 310 310 309 307 306 305 304 304 303 302 301 300 300 299 298 297 297 296 295 294 294 293 292 292 291 291 290 288 287 286 285 285 284 283 282 281 280 279 278 277 276 275 274 273 272
319 319 320 320 321 321 321 321 321 321 320 320 319 318 318 318 318 318 318 318 318 318 318 318 318 318 317 317 316 315 315 314 314 314 314 313 312 312 311 311 310 309 308 307 306 305 304 303 302 302 301 300 300 299 298 297 297 296 295 294 293 293 292 292 291 290 289 288 287 286 285 284 283 282 281 280 279 278 277 276 276 275 274 273 272
319 319 320 320 321 321 321 321 321 320 319 318 318 317 317 317 318 318 318 318 318 317 317 317 317 317 316 316 315 314 314 314 314 314 314 313 312 311 311 311 310 308 307 306 305 304 304 303 302 301 301 300 299 299 298 297 297 296 295 294 294 293 293 292 291 290 289 288 287 286 285 284 283 282 281 280 279 278 277 276 276 275 274 273 272
318 318 319 320 320 320 320 321 320 319 318 318 317 317 317 318 318 318 318 318 317 317 317 317 317 316 316 315 314 314 314 314 314 314 314 313 312 311 311 310 309 308 307 306 305 304 304 303 302 301 301 300 299 299 298 297 297 296 295 295 294 294 293 292 291 290 290 289 288 287 286 285 284 282 281 280 278 277 276 276 275 274 272 271 270
318 318 319 319 319 320 320 320 319 318 318 318 317 317 317 318 318 317 317 317 317 317 317 316 316 315 315 314 314 315 315 314 314 314 313 312 311 311 310 309 308 308 307 306 305 304 304 303 302 301 301 300 299 299 298 298 297 296 296 295 294 294 293 292 291 290 290 289 288 287 286 284 283 282 281 279 278 277 276 274 273 272 271 270 269
318 318 319 319 319 319 319 319 319 318 318 318 317 317 317 317 317 317 317 317 317 317 317 316 316 315 315 315 315 315 315 314 314 314 313 312 311 311 310 309 308 308 307 306 305 304 303 303 302 302 301 300 300 299 298 298 297 296 295 295 294 293 292 292 291 290 290 289 288 286 285 284 283 282 281 279 278 277 275 274 272 271 270 270 268
318 318 318 318 319 319 318 318 318 318 318 317 317 316 316 316 317 317 318 318 317 317 316 316 315 315 315 315 315 315 315 315 314 314 313 312 311 310 310 309 308 307 306 306 305 304 304 303 303 302 301 301 300 299 298 297 297 296 295 294 293 293 292 291 291 290 289 288 287 286 285 284 283 282 281 280 278 277 275 274 272 271 270 269 268
318 318 318 318 318 318 318 318 318 318 318 317 317 316 316 317 317 317 318 318 317 317 316 316 316 316 316 316 315 315 315 315 314 313 312 311 311 310 309 308 308 307 306 306 305 305 304 303 303 302 301 301 300 299 298 297 296 295 295 294 293 292 292 291 291 290 289 288 287 286 285 284 283 282 281 280 279 277 276 275 273 272 271 270 269
318 317 317 317 317 317 317 318 318 318 318 317 317 317 317 317 317 318 318 317 317 317 316 316 316 316 316 316 316 315 315 314 314 313 312 311 311 310 309 309 308 308 307 307 306 305 304 304 303 302 302 301 300 299 298 297 297 296 295 294 293 292 292 291 290 290 289 288 287 286 285 284 283 282 281 281 279 278 277 275 274 273 272 271 269
316 316 316 316 316 316 317 318 318 318 318 318 317 317 317 317 317 318 317 317 317 317 317 317 316 316 316 316 316 315 315 314 313 313 312 311 311 310 310 309 309 309 308 307 306 306 305 304 303 303 302 301 300 300 299 298 297 297 296 295 294 293 292 292 291 289 288 287 286 286 285 283 283 282 281 280 279 278 277 276 275 273 272 271 270
315 316 316 315 316 316 317 318 318 318 318 318 318 317 317 317 318 318 317 317 317 317 317 317 316 316 317 316 316 315 315 314 313 313 312 312 311 311 311 310 310 309 308 308 307 306 305 304 304 303 302 302 301 300 299 298 298 297 296 295 294 294 293 292 291 289 288 287 286 285 284 283 282 282 281 280 279 279 278 276 275 273 272 271 270
316 316 315 315 316 317 317 318 318 318 318 318 318 318 318 318 318 318 318 318 318 318 317 317 317 317 317 316 316 315 315 314 313 313 313 312 312 312 312 311 310 310 309 308 307 306 305 305 304 303 303 302 301 300 299 299 298 297 296 295 295 294 294 292 290 289 288 287 286 285 284 284 283 282 281 281 280 279 278 276 275 273 272 271 270
316 315 315 315 316 317 317 317 318 318 318 318 318 318 318 318 318 318 318 318 318 317 317 317 317 317 317 316 316 315 315 314 314 314 314 313 313 313 312 311 311 310 309 308 307 306 306 305 304 303 302 302 301 300 300 299 298 297 296 295 295 294 293 292 291 290 288 287 286 285 284 284 283 282 282 281 280 279 278 276 275 273 272 270 269
315 315 316 316 317 317 317 318 318 318 318 318 318 318 318 318 318 318 318 318 317 317 318 318 318 317 317 316 316 315 315 315 315 315 315 314 314 313 312 312 311 310 309 308 307 307 306 305 304 303 303 302 301 300 300 299 298 297 296 295 295 294 293 292 291 290 289 288 287 286 285 284 283 282 282 281 280 279 277 275 274 272 271 270 268
315 316 316 317 317 317 318 318 318 318 318 318 318 318 319 319 319 318 318 318 318 318 318 318 318 317 317 316 316 316 316 316 316 315 315 314 314 313 313 312 311 310 309 308 308 307 306 305 305 304 303 303 302 302 301 300 299 298 297 296 295 295 294 293 292 291 291 290 289 288 286 285 284 283 282 280 279 278 276 274 273 272 270 269 268
316 316 317 317 317 318 318 318 318 319 319 319 319 319 319 319 319 318 318 318 318 319 318 318 318 317 317 317 317 317 317 317 316 316 315 315 314 313 313 312 311 310 310 309 308 307 307 306 306 305 305 304 303 303 302 301 300 298 297 297 296 296 295 294 294 293 292 291 290 289 287 286 285 284 282 280 279 277 275 274 272 271 270 268 267
316 316 317 317 318 318 318 319 319 319 319 319 319 319 319 319 318 318 318 319 319 319 319 318 318 318 318 318 318 318 317 317 316 316 315 315 314 313 313 312 311 311 310 310 309 309 309 308 307 307 306 305 305 304 303 302 301 299 299 298 298 297 296 295 295 294 293 292 291 289 288 287 286 284 283 281 280 278 276 274 273 271 270 268 267
315 316 317 317 318 318 319 319 319 319 319 319 319 319 319 319 318 319 319 320 320 319 319 319 318 318 319 319 318 318 318 317 317 316 316 315 314 314 313 313 312 312 311 311 311 311 310 310 309 309 308 307 306 305 304 302 301 300 300 299 298 298 297 297 296 295 293 292 291 290 289 289 288 286 284 282 281 279 277 275 273 272 270 269 267
315 316 317 318 318 319 319 320 320 320 320 320 319 319 319 319 319 320 320 320 320 320 319 319 319 319 319 319 319 318 318 317 317 316 316 316 315 315 314 314 314 313 313 313 313 312 312 311 311 310 309 308 307 306 305 304 302 302 301 300 300 299 298 297 296 294 293 293 292 292 291 290 289 287 285 283 281 279 277 275 273 272 270 268 266
316 317 318 318 319 320 320 320 320 320 320 320 320 319 319 320 320 321 320 320 320 320 320 320 320 320 320 320 319 318 318 317 317 317 317 316 316 316 315 315 315 315 315 314 314 313 313 313 312 312 312 310 309 308 308 306 304 303 302 302 301 300 299 297 296 295 294 294 293 293 292 290 288 286 284 282 280 278 277 275 273 271 269 266 264
317 318 318 319 320 320 320 320 320 320 320 320 320 320 320 321 321 321 321 321 321 320 321 321 321 321 320 320 319 319 318 318 318 318 318 317 317 317 317 317 317 316 316 316 316 316 316 315 315 315 314 312 311 311 309 307 306 305 304 304 303 301 300 298 297 296 295 295 295 294 292 291 288 286 285 283 281 279 277 275 272 270 267 264 262
318 319 319 320 320 320 320 320 320 320 320 320 320 321 321 322 321 321 321 321 321 321 321 321 321 321 320 320 320 319 319 319 319 319 319 319 319 319 319 319 318 318 318 318 318 318 318 318 317 317 315 313 313 312 310 309 308 307 307 306 304 303 301 300 299 298 298 298 297 296 294 292 290 288 287 285 282 280 277 274 271 267 264 261 259
319 320 320 320 320 320 320 320 320 320 320 321 321 322 322 322 322 322 322 322 322 322 322 322 321 321 321 320 320 320 320 320 320 320 320 321 321 321 321 321 320 320 320 320 320 320 320 319 319 318 316 315 315 313 312 311 311 310 309 308 307 305 303 302 302 302 302 301 300 299 297 295 293 291 289 286 282 279 275 272 269 265 261 257 253
320 320 320 320 320 320 321 321 320 321 321 322 322 322 322 322 322 322 322 322 323 323 322 322 322 321 321 321 322 322 322 321 321 322 322 323 323 323 322 322 322 321 321 321 321 321 321 320 320 318 318 317 316 315 314 315 314 314 313 311 309 308 307 306 307 307 307 306 305 303 301 298 297 294 290 285 281 277 273 270 265 260 254 248 243
320 320 320 320 321 321 321 321 321 321 322 323 323 323 323 323 323 323 323 323 323 323 323 322 322 322 323 323 323 323 323 323 324 324 325 325 325 325 325 324 324 324 323 323 323 323 322 322 321 320 319 318 318 318 319 319 319 318 317 315 313 312 311 312 313 313 313 312 310 307 305 304 301 296 289 284 281 277 272 265 257 250 241 234 227
320 320 321 321 321 321 321 321 322 323 324 324 324 324 324 324 324 324 324 324 323 323 323 323 323 324 324 324 325 325 325 326 326 327 327 328 328 327 327 327 327 327 326 326 327 326 325 325 324 323 323 323 323 323 324 324 324 324 322 321 320 319 319 320 321 321 321 319 317 314 314 313 308 301 295 290 285 276 265 252 242 233 225 216 210
321 321 321 321 321 321 322 322 324 324 324 324 325 325 325 325 325 325 324 324 323 323 324 324 325 325 326 326 327 327 328 328 329 329 330 330 330 329 329 329 330 330 330 330 329 329 329 328 329 329 329 329 329 329 329 330 330 330 329 329 328 327 328 329 330 332 331 329 328 327 329 329 324 317 314 309 299 273 243 228 220 211 202 194 192
321 322 322 322 322 322 323 324 325 325 325 325 325 326 326 326 326 325 324 324 324 324 325 326 326 327 327 328 329 329 330 330 330 331 331 331 331 331 331 331 332 332 333 332 332 333 333 334 335 335 335 335 335 335 336 337 338 337 337 336 336 336 338 341 343 344 345 344 346 349 353 355 354 356 5 20 41 99 162 177 178 173 169 170 175
322 322 322 322 323 323 325 325 325 325 326 326 326 327 327 327 327 325 325 325 325 326 327 328 329 329 330 331 331 331 332 332 333 333 333 333 333 333 333 334 335 336 336 336 336 337 338 339 340 341 342 342 343 343 344 344 344 345 344 345 346 347 350 354 357 358 1 3 7 13 21 27 33 44 57 70 84 97 112 125 135 140 143 148 156
322 322 323 323 324 325 326 326 326 327 327 327 328 328 328 328 327 327 327 327 328 329 330 331 331 332 332 333 333 334 334 335 335 336 336 336 336 337 337 338 339 339 339 339 340 341 342 344 346 348 349 350 350 351 352 352 352 353 354 355 357 360 3 7 11 13 17 23 28 35 43 51 59 68 76 84 93 102 109 114 117 121 124 128 133
323 323 324 324 326 326 327 327 327 328 328 329 329 329 329 328 328 329 330 330 331 331 332 333 333 334 335 335 336 336 337 337 338 339 340 340 341 341 341 341 341 341 341 342 344 346 349 352 355 355 356 357 358 359 360 1 2 3 4 6 8 12 15 19 23 27 31 37 42 48 56 64 72 78 84 91 97 102 107 111 112 114 116 119 124
324 324 325 326 327 328 328 328 329 329 330 331 331 330 330 330 331 331 332 333 333 334 334 335 336 337 337 338 339 339 340 341 343 344 344 344 344 344 344 345 345 346 347 349 351 354 357 1 2 3 3 4 6 7 9 10 11 13 14 16 20 23 27 31 34 37 41 45 50 54 60 66 73 78 83 89 93 99 104 107 109 112 115 119 123
325 325 327 328 328 328 329 330 331 331 332 332 331 331 331 332 333 334 335 335 336 336 337 338 339 340 340 341 343 344 345 346 347 348 348 348 348 348 349 350 351 352 354 356 358 1 5 8 9 10 11 13 14 16 18 19 20 21 24 27 30 33 37 40 43 46 49 52 55 58 61 65 69 73 77 82 86 91 96 100 104 108 112 116 121
326 327 329 329 329 330 331 332 332 333 333 332 332 333 334 335 336 336 337 338 338 339 340 341 342 343 343 345 346 348 349 349 351 352 353 353 354 354 355 356 358 359 2 4 7 9 12 15 16 18 19 20 22 24 25 26 28 30 33 36 39 43 46 49 52 55 57 59 61 62 64 66 69 72 74 77 80 83 86 90 94 99 103 107 110
328 329 330 330 331 332 333 333 334 334 334 333 334 335 336 337 338 339 340 340 341 342 343 344 345 346 347 348 350 352 353 354 355 357 358 358 358 359 1 2 4 6 9 12 15 18 20 22 24 26 27 28 30 31 32 34 36 39 42 45 48 51 54 57 59 62 64 66 68 69 71 73 75 77 78 80 81 83 84 86 88 91 93 94 94
330 330 330 331 333 334 334 335 335 335 335 335 337 338 340 341 341 342 342 343 344 345 347 348 349 350 351 352 354 356 358 359 360 1 2 3 3 5 7 8 10 13 16 19 22 26 29 31 33 34 35 36 37 39 40 43 46 48 51 53 56 59 62 64 66 68 69 71 73 75 77 79 81 83 84 85 86 87 88 89 89 90 91 92 93
331 331 332 334 335 335 336 336 336 336 337 339 340 342 343 343 344 344 345 346 347 349 351 352 353 354 356 357 359 0 2 3 4 6 7 9 10 11 13 15 17 19 22 26 30 34 37 40 42 43 44 46 47 48 50 52 55 57 59 60 62 64 66 67 69 70 71 73 74 76 78 80 82 84 85 86 87 87 88 89 90 91 92 94 97
332 333 334 336 336 337 337 337 337 338 340 342 344 345 346 346 347 348 349 350 352 353 355 356 358 359 1 2 3 5 6 8 10 12 14 15 16 18 19 21 24 26 29 32 36 40 43 47 49 51 53 54 55 56 58 59 60 62 62 64 64 65 66 67 68 69 70 71 72 73 74 75 77 79 80 81 83 85 86 88 90 92 94 95 97
333 335 337 337 337 338 338 338 339 341 344 345 347 348 349 350 351 352 353 354 356 358 359 1 3 4 6 7 8 9 11 14 16 18 20 22 23 25 26 28 30 33 35 38 41 44 47 50 52 55 56 58 59 60 61 62 63 63 64 65 65 66 66 67 67 68 69 70 71 72 73 74 75 76 77 79 80 82 84 86 88 90 92 92 93
335 337 338 338 339 339 340 340 342 345 347 348 350 351 352 353 355 356 357 359 0 2 4 6 7 9 11 12 14 15 18 20 22 24 26 28 30 31 32 34 37 39 41 44 46 48 50 52 54 56 58 59 60 61 63 64 64 65 66 66 67 68 68 69 69 70 71 71 72 73 74 75 76 77 78 80 81 83 84 85 87 88 89 90 90
337 338 339 339 340 341 341 343 345 348 349 351 352 354 355 356 358 359 1 2 4 6 9 10 12 14 16 18 20 22 23 25 27 29 31 34 35 37 38 40 42 44 47 49 51 53 55 56 58 60 61 63 64 65 66 67 68 69 69 70 70 71 72 72 73 73 74 75 75 76 76 77 78 79 80 81 82 83 84 85 86 86 87 87 88
339 339 339 340 341 342 343 345 348 350 352 353 355 356 358 359 0 2 4 6 8 11 13 15 17 20 21 23 25 27 28 30 32 34 36 38 40 42 44 46 47 49 50 52 54 56 59 60 62 63 65 66 67 69 69 70 71 72 73 73 74 74 75 75 76 76 77 77 78 78 79 79 80 80 81 82 83 84 85 86 86 87 87 88 89
340 340 340 342 343 343 345 347 350 352 353 355 356 358 360 1 3 5 7 9 11 14 17 19 22 24 26 28 30 31 33 35 36 38 40 41 43 46 48 50 52 53 54 55 56 58 59 61 62 64 65 67 68 69 71 72 73 74 75 75 76 76 77 78 78 79 79 80 80 80 80 81 81 82 82 83 84 84 85 86 87 87 88 88 89
340 340 342 343 344 345 347 349 352 353 354 356 358 359 1 3 5 6 8 11 13 16 18 21 24 27 29 31 33 35 37 39 40 42 44 45 47 48 50 52 54 56 57 58 59 60 60 61 62 62 64 65 66 67 69 70 71 72 73 74 75 76 77 78 78 79 79 80 81 81 81 81 82 82 83 83 84 84 85 85 86 87 87 88 89
340 341 343 344 345 346 348 351 353 354 355 357 358 0 2 4 6 8 10 12 14 17 19 22 24 27 29 31 34 36 38 39 41 43 45 47 49 50 52 53 54 55 57 58 59 60 61 62 62 63 64 65 65 66 67 68 69 70 70 71 72 73 74 75 76 77 78 79 79 80 81 81 82 83 83 84 84 85 85 86 87 87 88 89 89
341 342 344 345 345 347 349 352 354 355 356 357 359 1 3 5 7 9 11 13 15 18 21 23 25 27 30 32 34 36 37 39 41 43 44 46 48 49 51 52 53 54 56 57 58 59 60 60 61 62 63 64 64 65 66 66 67 68 69 69 70 71 72 73 74 75 76 77 77 78 79 80 81 82 83 83 84 85 86 86 87 88 89 90 90
342 343 345 345 346 347 350 353 354 355 356 357 359 1 3 5 7 9 11 14 16 19 21 24 26 28 31 33 35 37 39 40 42 43 45 46 47 49 50 51 52 53 54 54 56 57 58 59 59 60 61 61 62 62 63 64 65 65 66 67 68 68 69 70 70 71 71 72 73 74 75 76 77 78 79 80 81 82 83 84 84 85 85 85 85
342 344 345 345 346 348 350 353 354 355 356 356 358 0 3 5 7 9 11 13 16 18 20 23 25 28 30 32 34 36 38 40 42 43 44 46 47 48 49 50 51 52 53 53 54 55 56 57 58 59 59 60 61 61 61 62 62 63 63 64 64 65 65 65 66 67 67 68 69 70 70 71 72 73 74 74 75 76 76 77 77 77 77 77 77